Year,Month,Day,Hour,Minute,Value (Times are PST for temperature in C)
2007,10,24,00,00,11.40
2007,10,24,00,01,11.40
2007,10,24,00,02,11.40
2007,10,24,00,03,11.40
2007,10,24,00,04,11.40
2007,10,24,00,05,11.40
2007,10,24,00,06,11.40
2007,10,24,00,07,11.40
2007,10,24,00,08,11.40
2007,10,24,00,09,11.40
2007,10,24,00,10,11.40
2007,10,24,00,11,11.40
2007,10,24,00,12,11.40
2007,10,24,00,13,11.40
2007,10,24,00,14,11.40
2007,10,24,00,15,11.40
2007,10,24,00,16,11.40
2007,10,24,00,17,11.40
2007,10,24,00,18,11.40
2007,10,24,00,19,11.50
2007,10,24,00,20,11.60
2007,10,24,00,21,11.70
2007,10,24,00,22,11.70
2007,10,24,00,23,11.80
2007,10,24,00,24,11.80
2007,10,24,00,25,11.80
2007,10,24,00,26,11.80
2007,10,24,00,27,11.80
2007,10,24,00,28,11.80
2007,10,24,00,29,11.80
2007,10,24,00,30,11.80
2007,10,24,00,31,11.80
2007,10,24,00,32,11.80
2007,10,24,00,33,11.80
2007,10,24,00,34,11.80
2007,10,24,00,35,11.80
2007,10,24,00,36,11.80
2007,10,24,00,37,11.80
2007,10,24,00,38,11.80
2007,10,24,00,39,11.80
2007,10,24,00,40,11.80
2007,10,24,00,41,11.80
2007,10,24,00,42,11.80
2007,10,24,00,43,11.80
2007,10,24,00,44,11.90
2007,10,24,00,45,11.90
2007,10,24,00,46,12.00
2007,10,24,00,47,12.00
2007,10,24,00,48,12.00
2007,10,24,00,49,12.10
2007,10,24,00,50,12.10
2007,10,24,00,51,12.20
2007,10,24,00,52,12.20
2007,10,24,00,53,12.20
2007,10,24,00,54,12.20
2007,10,24,00,55,12.30
2007,10,24,00,56,12.30
2007,10,24,00,57,12.30
2007,10,24,00,58,12.30
2007,10,24,00,59,12.30
2007,10,24,01,00,12.30
2007,10,24,01,01,12.30
2007,10,24,01,02,12.30
2007,10,24,01,03,12.30
2007,10,24,01,04,12.30
2007,10,24,01,05,12.30
2007,10,24,01,06,12.30
2007,10,24,01,07,12.30
2007,10,24,01,08,12.30
2007,10,24,01,09,12.30
2007,10,24,01,10,12.30
2007,10,24,01,11,12.30
2007,10,24,01,12,12.30
2007,10,24,01,13,12.20
2007,10,24,01,14,12.20
2007,10,24,01,15,12.20
2007,10,24,01,16,12.20
2007,10,24,01,17,12.20
2007,10,24,01,18,12.20
2007,10,24,01,19,12.20
2007,10,24,01,20,12.20
2007,10,24,01,21,12.20
2007,10,24,01,22,12.20
2007,10,24,01,23,12.20
2007,10,24,01,24,12.20
2007,10,24,01,25,12.20
2007,10,24,01,26,12.30
2007,10,24,01,27,12.30
2007,10,24,01,28,12.30
2007,10,24,01,29,12.30
2007,10,24,01,30,12.30
2007,10,24,01,31,12.30
2007,10,24,01,32,12.30
2007,10,24,01,33,12.30
2007,10,24,01,34,12.30
2007,10,24,01,35,12.30
2007,10,24,01,36,12.30
2007,10,24,01,37,12.30
2007,10,24,01,38,12.30
2007,10,24,01,39,12.20
2007,10,24,01,40,12.20
2007,10,24,01,41,12.10
2007,10,24,01,42,12.10
2007,10,24,01,43,12.00
2007,10,24,01,44,12.00
2007,10,24,01,45,12.00
2007,10,24,01,46,12.00
2007,10,24,01,47,12.00
2007,10,24,01,48,12.00
2007,10,24,01,49,12.00
2007,10,24,01,50,12.00
2007,10,24,01,51,12.10
2007,10,24,01,52,12.10
2007,10,24,01,53,12.10
2007,10,24,01,54,12.00
2007,10,24,01,55,12.00
2007,10,24,01,56,12.00
2007,10,24,01,57,12.00
2007,10,24,01,58,11.90
2007,10,24,01,59,11.90
2007,10,24,02,00,11.90
2007,10,24,02,01,11.90
2007,10,24,02,02,12.00
2007,10,24,02,03,12.00
2007,10,24,02,04,12.00
2007,10,24,02,05,12.00
2007,10,24,02,06,12.10
2007,10,24,02,07,12.10
2007,10,24,02,08,12.10
2007,10,24,02,09,12.10
2007,10,24,02,10,12.20
2007,10,24,02,11,12.20
2007,10,24,02,12,12.30
2007,10,24,02,13,12.30
2007,10,24,02,14,12.30
2007,10,24,02,15,12.40
2007,10,24,02,16,12.50
2007,10,24,02,17,12.60
2007,10,24,02,18,12.70
2007,10,24,02,19,12.70
2007,10,24,02,20,12.70
2007,10,24,02,21,12.70
2007,10,24,02,22,12.80
2007,10,24,02,23,13.10
2007,10,24,02,24,13.20
2007,10,24,02,25,13.20
2007,10,24,02,26,13.30
2007,10,24,02,27,13.30
2007,10,24,02,28,13.30
2007,10,24,02,29,13.40
2007,10,24,02,30,13.40
2007,10,24,02,31,13.40
2007,10,24,02,32,13.40
2007,10,24,02,33,13.40
2007,10,24,02,34,13.50
2007,10,24,02,35,13.50
2007,10,24,02,36,13.60
2007,10,24,02,37,13.60
2007,10,24,02,38,13.70
2007,10,24,02,39,13.70
2007,10,24,02,40,13.70
2007,10,24,02,41,13.80
2007,10,24,02,42,13.80
2007,10,24,02,43,13.80
2007,10,24,02,44,13.70
2007,10,24,02,45,13.80
2007,10,24,02,46,13.80
2007,10,24,02,47,13.90
2007,10,24,02,48,13.90
2007,10,24,02,49,14.00
2007,10,24,02,50,14.10
2007,10,24,02,51,14.10
2007,10,24,02,52,14.20
2007,10,24,02,53,14.30
2007,10,24,02,54,14.30
2007,10,24,02,55,14.40
2007,10,24,02,56,14.50
2007,10,24,02,57,14.50
2007,10,24,02,58,14.60
2007,10,24,02,59,14.60
2007,10,24,03,00,14.60
2007,10,24,03,01,14.60
2007,10,24,03,02,14.60
2007,10,24,03,03,14.70
2007,10,24,03,04,14.70
2007,10,24,03,05,14.70
2007,10,24,03,06,14.80
2007,10,24,03,07,14.80
2007,10,24,03,08,14.80
2007,10,24,03,09,14.80
2007,10,24,03,10,14.80
2007,10,24,03,11,14.80
2007,10,24,03,12,14.80
2007,10,24,03,13,14.80
2007,10,24,03,14,14.90
2007,10,24,03,15,14.90
2007,10,24,03,16,14.90
2007,10,24,03,17,14.80
2007,10,24,03,18,14.80
2007,10,24,03,19,14.90
2007,10,24,03,20,14.90
2007,10,24,03,21,14.80
2007,10,24,03,22,14.80
2007,10,24,03,23,14.80
2007,10,24,03,24,14.80
2007,10,24,03,25,14.80
2007,10,24,03,26,14.80
2007,10,24,03,27,14.80
2007,10,24,03,28,14.80
2007,10,24,03,29,14.80
2007,10,24,03,30,14.80
2007,10,24,03,31,14.70
2007,10,24,03,32,14.70
2007,10,24,03,33,14.70
2007,10,24,03,34,14.70
2007,10,24,03,35,14.70
2007,10,24,03,36,14.70
2007,10,24,03,37,14.70
2007,10,24,03,38,14.70
2007,10,24,03,39,14.70
2007,10,24,03,40,14.70
2007,10,24,03,41,14.70
2007,10,24,03,42,14.60
2007,10,24,03,43,14.60
2007,10,24,03,44,14.60
2007,10,24,03,45,14.60
2007,10,24,03,46,14.60
2007,10,24,03,47,14.60
2007,10,24,03,48,14.50
2007,10,24,03,49,14.40
2007,10,24,03,50,14.40
2007,10,24,03,51,14.40
2007,10,24,03,52,14.30
2007,10,24,03,53,14.30
2007,10,24,03,54,14.30
2007,10,24,03,55,14.30
2007,10,24,03,56,14.30
2007,10,24,03,57,14.30
2007,10,24,03,58,14.30
2007,10,24,03,59,14.30
2007,10,24,04,00,14.30
2007,10,24,04,01,14.30
2007,10,24,04,02,14.30
2007,10,24,04,03,14.30
2007,10,24,04,04,14.30
2007,10,24,04,05,14.30
2007,10,24,04,06,14.30
2007,10,24,04,07,14.40
2007,10,24,04,08,14.40
2007,10,24,04,09,14.40
2007,10,24,04,10,14.40
2007,10,24,04,11,14.40
2007,10,24,04,12,14.30
2007,10,24,04,13,14.30
2007,10,24,04,14,14.30
2007,10,24,04,15,14.30
2007,10,24,04,16,14.30
2007,10,24,04,17,14.40
2007,10,24,04,18,14.40
2007,10,24,04,19,14.40
2007,10,24,04,20,14.40
2007,10,24,04,21,14.40
2007,10,24,04,22,14.40
2007,10,24,04,23,14.40
2007,10,24,04,24,14.40
2007,10,24,04,25,14.50
2007,10,24,04,26,14.50
2007,10,24,04,27,14.50
2007,10,24,04,28,14.50
2007,10,24,04,29,14.50
2007,10,24,04,30,14.50
2007,10,24,04,31,14.50
2007,10,24,04,32,14.50
2007,10,24,04,33,14.50
2007,10,24,04,34,14.50
2007,10,24,04,35,14.50
2007,10,24,04,36,14.60
2007,10,24,04,37,14.60
2007,10,24,04,38,14.60
2007,10,24,04,39,14.60
2007,10,24,04,40,14.60
2007,10,24,04,41,14.60
2007,10,24,04,42,14.60
2007,10,24,04,43,14.60
2007,10,24,04,44,14.60
2007,10,24,04,45,14.60
2007,10,24,04,46,14.60
2007,10,24,04,47,14.60
2007,10,24,04,48,14.70
2007,10,24,04,49,14.70
2007,10,24,04,50,14.70
2007,10,24,04,51,14.70
2007,10,24,04,52,14.70
2007,10,24,04,53,14.70
2007,10,24,04,54,14.70
2007,10,24,04,55,14.70
2007,10,24,04,56,14.70
2007,10,24,04,57,14.70
2007,10,24,04,58,14.70
2007,10,24,04,59,14.70
2007,10,24,05,00,14.70
2007,10,24,05,01,14.70
2007,10,24,05,02,14.70
2007,10,24,05,03,14.60
2007,10,24,05,04,14.60
2007,10,24,05,05,14.60
2007,10,24,05,06,14.60
2007,10,24,05,07,14.50
2007,10,24,05,08,14.50
2007,10,24,05,09,14.50
2007,10,24,05,10,14.50
2007,10,24,05,11,14.50
2007,10,24,05,12,14.50
2007,10,24,05,13,14.50
2007,10,24,05,14,14.40
2007,10,24,05,15,14.40
2007,10,24,05,16,14.40
2007,10,24,05,17,14.40
2007,10,24,05,18,14.40
2007,10,24,05,19,14.30
2007,10,24,05,20,14.30
2007,10,24,05,21,14.30
2007,10,24,05,22,14.30
2007,10,24,05,23,14.30
2007,10,24,05,24,14.40
2007,10,24,05,25,14.50
2007,10,24,05,26,14.50
2007,10,24,05,27,14.50
2007,10,24,05,28,14.50
2007,10,24,05,29,14.60
2007,10,24,05,30,14.60
2007,10,24,05,31,14.60
2007,10,24,05,32,14.60
2007,10,24,05,33,14.60
2007,10,24,05,34,14.70
2007,10,24,05,35,14.60
2007,10,24,05,36,14.60
2007,10,24,05,37,14.60
2007,10,24,05,38,14.60
2007,10,24,05,39,14.60
2007,10,24,05,40,14.60
2007,10,24,05,41,14.50
2007,10,24,05,42,14.50
2007,10,24,05,43,14.50
2007,10,24,05,44,14.50
2007,10,24,05,45,14.50
2007,10,24,05,46,14.40
2007,10,24,05,47,14.40
2007,10,24,05,48,14.40
2007,10,24,05,49,14.40
2007,10,24,05,50,14.30
2007,10,24,05,51,14.30
2007,10,24,05,52,14.30
2007,10,24,05,53,14.20
2007,10,24,05,54,14.20
2007,10,24,05,55,14.20
2007,10,24,05,56,14.20
2007,10,24,05,57,14.20
2007,10,24,05,58,14.20
2007,10,24,05,59,14.20
2007,10,24,06,00,14.20
2007,10,24,06,01,14.20
2007,10,24,06,02,14.20
2007,10,24,06,03,14.20
2007,10,24,06,04,14.20
2007,10,24,06,05,14.20
2007,10,24,06,06,14.20
2007,10,24,06,07,14.20
2007,10,24,06,08,14.20
2007,10,24,06,09,14.20
2007,10,24,06,10,14.20
2007,10,24,06,11,14.20
2007,10,24,06,12,14.20
2007,10,24,06,13,14.20
2007,10,24,06,14,14.20
2007,10,24,06,15,14.20
2007,10,24,06,16,14.20
2007,10,24,06,17,14.20
2007,10,24,06,18,14.20
2007,10,24,06,19,14.20
2007,10,24,06,20,14.20
2007,10,24,06,21,14.20
2007,10,24,06,22,14.20
2007,10,24,06,23,14.20
2007,10,24,06,24,14.20
2007,10,24,06,25,14.20
2007,10,24,06,26,14.20
2007,10,24,06,27,14.20
2007,10,24,06,28,14.10
2007,10,24,06,29,14.10
2007,10,24,06,30,14.00
2007,10,24,06,31,14.00
2007,10,24,06,32,13.90
2007,10,24,06,33,13.90
2007,10,24,06,34,13.90
2007,10,24,06,35,13.90
2007,10,24,06,36,13.90
2007,10,24,06,37,13.90
2007,10,24,06,38,13.80
2007,10,24,06,39,13.70
2007,10,24,06,40,13.70
2007,10,24,06,41,13.70
2007,10,24,06,42,13.70
2007,10,24,06,43,13.70
2007,10,24,06,44,13.60
2007,10,24,06,45,13.60
2007,10,24,06,46,13.60
2007,10,24,06,47,13.60
2007,10,24,06,48,13.60
2007,10,24,06,49,13.60
2007,10,24,06,50,13.60
2007,10,24,06,51,13.60
2007,10,24,06,52,13.60
2007,10,24,06,53,13.60
2007,10,24,06,54,13.60
2007,10,24,06,55,13.60
2007,10,24,06,56,13.60
2007,10,24,06,57,13.60
2007,10,24,06,58,13.60
2007,10,24,06,59,13.60
2007,10,24,07,00,13.60
2007,10,24,07,01,13.60
2007,10,24,07,02,13.60
2007,10,24,07,03,13.50
2007,10,24,07,04,13.50
2007,10,24,07,05,13.40
2007,10,24,07,06,13.40
2007,10,24,07,07,13.30
2007,10,24,07,08,13.30
2007,10,24,07,09,13.30
2007,10,24,07,10,13.30
2007,10,24,07,11,13.20
2007,10,24,07,12,13.20
2007,10,24,07,13,13.20
2007,10,24,07,14,13.10
2007,10,24,07,15,13.10
2007,10,24,07,16,13.10
2007,10,24,07,17,13.10
2007,10,24,07,18,13.10
2007,10,24,07,19,13.10
2007,10,24,07,20,13.10
2007,10,24,07,21,13.10
2007,10,24,07,22,13.10
2007,10,24,07,23,13.10
2007,10,24,07,24,13.10
2007,10,24,07,25,13.10
2007,10,24,07,26,13.10
2007,10,24,07,27,13.10
2007,10,24,07,28,13.10
2007,10,24,07,29,13.00
2007,10,24,07,30,13.00
2007,10,24,07,31,13.00
2007,10,24,07,32,13.00
2007,10,24,07,33,12.90
2007,10,24,07,34,12.90
2007,10,24,07,35,12.90
2007,10,24,07,36,12.80
2007,10,24,07,37,12.80
2007,10,24,07,38,12.80
2007,10,24,07,39,12.80
2007,10,24,07,40,12.80
2007,10,24,07,41,12.80
2007,10,24,07,42,12.80
2007,10,24,07,43,12.80
2007,10,24,07,44,12.80
2007,10,24,07,45,12.80
2007,10,24,07,46,12.80
2007,10,24,07,47,12.80
2007,10,24,07,48,12.80
2007,10,24,07,49,12.80
2007,10,24,07,50,12.70
2007,10,24,07,51,12.70
2007,10,24,07,52,12.70
2007,10,24,07,53,12.60
2007,10,24,07,54,12.60
2007,10,24,07,55,12.60
2007,10,24,07,56,12.50
2007,10,24,07,57,12.50
2007,10,24,07,58,12.40
2007,10,24,07,59,12.40
2007,10,24,08,00,12.30
2007,10,24,08,01,12.30
2007,10,24,08,02,12.30
2007,10,24,08,03,12.30
2007,10,24,08,04,12.30
2007,10,24,08,05,12.30
2007,10,24,08,06,12.30
2007,10,24,08,07,12.30
2007,10,24,08,08,12.30
2007,10,24,08,09,12.20
2007,10,24,08,10,12.20
2007,10,24,08,11,12.20
2007,10,24,08,12,12.20
2007,10,24,08,13,12.20
2007,10,24,08,14,12.20
2007,10,24,08,15,12.20
2007,10,24,08,16,12.20
2007,10,24,08,17,12.20
2007,10,24,08,18,12.20
2007,10,24,08,19,12.20
2007,10,24,08,20,12.20
2007,10,24,08,21,12.20
2007,10,24,08,22,12.20
2007,10,24,08,23,12.20
2007,10,24,08,24,12.20
2007,10,24,08,25,12.20
2007,10,24,08,26,12.20
2007,10,24,08,27,12.10
2007,10,24,08,28,12.10
2007,10,24,08,29,12.10
2007,10,24,08,30,12.10
2007,10,24,08,31,12.10
2007,10,24,08,32,12.10
2007,10,24,08,33,12.10
2007,10,24,08,34,12.10
2007,10,24,08,35,12.10
2007,10,24,08,36,12.10
2007,10,24,08,37,12.10
2007,10,24,08,38,12.10
2007,10,24,08,39,12.10
2007,10,24,08,40,12.10
2007,10,24,08,41,12.10
2007,10,24,08,42,12.00
2007,10,24,08,43,12.00
2007,10,24,08,44,12.00
2007,10,24,08,45,12.00
2007,10,24,08,46,12.00
2007,10,24,08,47,12.00
2007,10,24,08,48,12.00
2007,10,24,08,49,12.00
2007,10,24,08,50,12.00
2007,10,24,08,51,12.00
2007,10,24,08,52,12.00
2007,10,24,08,53,12.00
2007,10,24,08,54,11.90
2007,10,24,08,55,11.90
2007,10,24,08,56,11.90
2007,10,24,08,57,11.90
2007,10,24,08,58,11.90
2007,10,24,08,59,11.90
2007,10,24,09,00,11.90
2007,10,24,09,01,11.90
2007,10,24,09,02,11.80
2007,10,24,09,03,11.80
2007,10,24,09,04,11.80
2007,10,24,09,05,11.90
2007,10,24,09,06,11.90
2007,10,24,09,07,11.90
2007,10,24,09,08,11.90
2007,10,24,09,09,11.90
2007,10,24,09,10,11.90
2007,10,24,09,11,11.90
2007,10,24,09,12,11.90
2007,10,24,09,13,11.90
2007,10,24,09,14,11.90
2007,10,24,09,15,11.90
2007,10,24,09,16,11.90
2007,10,24,09,17,11.90
2007,10,24,09,18,11.90
2007,10,24,09,19,11.90
2007,10,24,09,20,11.90
2007,10,24,09,21,11.90
2007,10,24,09,22,11.90
2007,10,24,09,23,11.90
2007,10,24,09,24,11.90
2007,10,24,09,25,11.90
2007,10,24,09,26,11.90
2007,10,24,09,27,11.90
2007,10,24,09,28,11.90
2007,10,24,09,29,11.90
2007,10,24,09,30,11.90
2007,10,24,09,31,11.90
2007,10,24,09,32,11.90
2007,10,24,09,33,12.00
2007,10,24,09,34,12.00
2007,10,24,09,35,12.00
2007,10,24,09,36,12.00
2007,10,24,09,37,12.00
2007,10,24,09,38,12.00
2007,10,24,09,39,12.00
2007,10,24,09,40,12.00
2007,10,24,09,41,12.00
2007,10,24,09,42,12.00
2007,10,24,09,43,12.00
2007,10,24,09,44,12.00
2007,10,24,09,45,12.00
2007,10,24,09,46,11.90
2007,10,24,09,47,11.90
2007,10,24,09,48,11.90
2007,10,24,09,49,11.80
2007,10,24,09,50,11.80
2007,10,24,09,51,11.80
2007,10,24,09,52,11.80
2007,10,24,09,53,11.80
2007,10,24,09,54,11.80
2007,10,24,09,55,11.80
2007,10,24,09,56,11.70
2007,10,24,09,57,11.70
2007,10,24,09,58,11.70
2007,10,24,09,59,11.70
2007,10,24,10,00,11.60
2007,10,24,10,01,11.60
2007,10,24,10,02,11.60
2007,10,24,10,03,11.60
2007,10,24,10,04,11.60
2007,10,24,10,05,11.60
2007,10,24,10,06,11.60
2007,10,24,10,07,11.60
2007,10,24,10,08,11.60
2007,10,24,10,09,11.60
2007,10,24,10,10,11.60
2007,10,24,10,11,11.60
2007,10,24,10,12,11.60
2007,10,24,10,13,11.60
2007,10,24,10,14,11.60
2007,10,24,10,15,11.60
2007,10,24,10,16,11.60
2007,10,24,10,17,11.60
2007,10,24,10,18,11.60
2007,10,24,10,19,11.60
2007,10,24,10,20,11.60
2007,10,24,10,21,11.60
2007,10,24,10,22,11.60
2007,10,24,10,23,11.60
2007,10,24,10,24,11.60
2007,10,24,10,25,11.50
2007,10,24,10,26,11.40
2007,10,24,10,27,11.40
2007,10,24,10,28,11.40
2007,10,24,10,29,11.40
2007,10,24,10,30,11.40
2007,10,24,10,31,11.40
2007,10,24,10,32,11.40
2007,10,24,10,33,11.40
2007,10,24,10,34,11.40
2007,10,24,10,35,11.40
2007,10,24,10,36,11.40
2007,10,24,10,37,11.40
2007,10,24,10,38,11.40
2007,10,24,10,39,11.40
2007,10,24,10,40,11.40
2007,10,24,10,41,11.40
2007,10,24,10,42,11.40
2007,10,24,10,43,11.40
2007,10,24,10,44,11.40
2007,10,24,10,45,11.40
2007,10,24,10,46,11.40
2007,10,24,10,47,11.40
2007,10,24,10,48,11.40
2007,10,24,10,49,11.40
2007,10,24,10,50,11.40
2007,10,24,10,51,11.40
2007,10,24,10,52,11.40
2007,10,24,10,53,11.40
2007,10,24,10,54,11.40
2007,10,24,10,55,11.40
2007,10,24,10,56,11.40
2007,10,24,10,57,11.40
2007,10,24,10,58,11.40
2007,10,24,10,59,11.40
2007,10,24,11,00,11.40
2007,10,24,11,01,11.40
2007,10,24,11,02,11.40
2007,10,24,11,03,11.40
2007,10,24,11,04,11.40
2007,10,24,11,05,11.40
2007,10,24,11,06,11.40
2007,10,24,11,07,11.40
2007,10,24,11,08,11.40
2007,10,24,11,09,11.40
2007,10,24,11,10,11.40
2007,10,24,11,11,11.40
2007,10,24,11,12,11.40
2007,10,24,11,13,11.40
2007,10,24,11,14,11.40
2007,10,24,11,15,11.40
2007,10,24,11,16,11.40
2007,10,24,11,17,11.40
2007,10,24,11,18,11.40
2007,10,24,11,19,11.40
2007,10,24,11,20,11.40
2007,10,24,11,21,11.40
2007,10,24,11,22,11.40
2007,10,24,11,23,11.40
2007,10,24,11,24,11.40
2007,10,24,11,25,11.40
2007,10,24,11,26,11.40
2007,10,24,11,27,11.40
2007,10,24,11,28,11.40
2007,10,24,11,29,11.50
2007,10,24,11,30,11.60
2007,10,24,11,31,11.60
2007,10,24,11,32,11.50
2007,10,24,11,33,11.40
2007,10,24,11,34,11.40
2007,10,24,11,35,11.40
2007,10,24,11,36,11.40
2007,10,24,11,37,11.40
2007,10,24,11,38,11.40
2007,10,24,11,39,11.40
2007,10,24,11,40,11.40
2007,10,24,11,41,11.40
2007,10,24,11,42,11.30
2007,10,24,11,43,11.30
2007,10,24,11,44,11.30
2007,10,24,11,45,11.30
2007,10,24,11,46,11.30
2007,10,24,11,47,11.30
2007,10,24,11,48,11.30
2007,10,24,11,49,11.30
2007,10,24,11,50,11.30
2007,10,24,11,51,11.30
2007,10,24,11,52,11.30
2007,10,24,11,53,11.30
2007,10,24,11,54,11.30
2007,10,24,11,55,11.30
2007,10,24,11,56,11.30
2007,10,24,11,57,11.30
2007,10,24,11,58,11.30
2007,10,24,11,59,11.30
2007,10,24,12,00,11.30
2007,10,24,12,01,11.30
2007,10,24,12,02,11.30
2007,10,24,12,03,11.30
2007,10,24,12,04,11.30
2007,10,24,12,05,11.30
2007,10,24,12,06,11.30
2007,10,24,12,07,11.30
2007,10,24,12,08,11.30
2007,10,24,12,09,11.30
2007,10,24,12,10,11.30
2007,10,24,12,11,11.30
2007,10,24,12,12,11.30
2007,10,24,12,13,11.30
2007,10,24,12,14,11.30
2007,10,24,12,15,11.20
2007,10,24,12,16,11.20
2007,10,24,12,17,11.20
2007,10,24,12,18,11.30
2007,10,24,12,19,11.30
2007,10,24,12,20,11.30
2007,10,24,12,21,11.30
2007,10,24,12,22,11.30
2007,10,24,12,23,11.30
2007,10,24,12,24,11.30
2007,10,24,12,25,11.30
2007,10,24,12,26,11.30
2007,10,24,12,27,11.30
2007,10,24,12,28,11.30
2007,10,24,12,29,11.30
2007,10,24,12,30,11.30
2007,10,24,12,31,11.30
2007,10,24,12,32,11.30
2007,10,24,12,33,11.30
2007,10,24,12,34,11.30
2007,10,24,12,35,11.30
2007,10,24,12,36,11.40
2007,10,24,12,37,11.40
2007,10,24,12,38,11.40
2007,10,24,12,39,11.40
2007,10,24,12,40,11.40
2007,10,24,12,41,11.40
2007,10,24,12,42,11.40
2007,10,24,12,43,11.40
2007,10,24,12,44,11.40
2007,10,24,12,45,11.40
2007,10,24,12,46,11.40
2007,10,24,12,47,11.40
2007,10,24,12,48,11.60
2007,10,24,12,49,11.60
2007,10,24,12,50,11.60
2007,10,24,12,51,11.60
2007,10,24,12,52,11.60
2007,10,24,12,53,11.70
2007,10,24,12,54,11.70
2007,10,24,12,55,11.70
2007,10,24,12,56,11.70
2007,10,24,12,57,11.80
2007,10,24,12,58,11.80
2007,10,24,12,59,11.80
2007,10,24,13,00,11.80
2007,10,24,13,01,11.80
2007,10,24,13,02,11.80
2007,10,24,13,03,11.80
2007,10,24,13,04,11.80
2007,10,24,13,05,11.90
2007,10,24,13,06,11.90
2007,10,24,13,07,11.90
2007,10,24,13,08,11.90
2007,10,24,13,09,12.00
2007,10,24,13,10,12.00
2007,10,24,13,11,12.00
2007,10,24,13,12,12.10
2007,10,24,13,13,12.10
2007,10,24,13,14,12.00
2007,10,24,13,15,12.00
2007,10,24,13,16,11.90
2007,10,24,13,17,11.80
2007,10,24,13,18,11.80
2007,10,24,13,19,11.80
2007,10,24,13,20,11.80
2007,10,24,13,21,11.70
2007,10,24,13,22,11.70
2007,10,24,13,23,11.60
2007,10,24,13,24,11.60
2007,10,24,13,25,11.60
2007,10,24,13,26,11.60
2007,10,24,13,27,11.60
2007,10,24,13,28,11.60
2007,10,24,13,29,11.60
2007,10,24,13,30,11.60
2007,10,24,13,31,11.60
2007,10,24,13,32,11.60
2007,10,24,13,33,11.60
2007,10,24,13,34,11.60
2007,10,24,13,35,11.60
2007,10,24,13,36,11.50
2007,10,24,13,37,11.40
2007,10,24,13,38,11.40
2007,10,24,13,39,11.40
2007,10,24,13,40,11.40
2007,10,24,13,41,11.40
2007,10,24,13,42,11.40
2007,10,24,13,43,11.40
2007,10,24,13,44,11.40
2007,10,24,13,45,11.30
2007,10,24,13,46,11.30
2007,10,24,13,47,11.30
2007,10,24,13,48,11.30
2007,10,24,13,49,11.30
2007,10,24,13,50,11.30
2007,10,24,13,51,11.30
2007,10,24,13,52,11.30
2007,10,24,13,53,11.30
2007,10,24,13,54,11.30
2007,10,24,13,55,11.30
2007,10,24,13,56,11.30
2007,10,24,13,57,11.40
2007,10,24,13,58,11.40
2007,10,24,13,59,11.50
2007,10,24,14,00,11.60
2007,10,24,14,01,11.60
2007,10,24,14,02,11.60
2007,10,24,14,03,11.70
2007,10,24,14,04,11.70
2007,10,24,14,05,11.70
2007,10,24,14,06,11.80
2007,10,24,14,07,11.90
2007,10,24,14,08,12.00
2007,10,24,14,09,12.10
2007,10,24,14,10,12.10
2007,10,24,14,11,12.10
2007,10,24,14,12,12.20
2007,10,24,14,13,12.20
2007,10,24,14,14,12.20
2007,10,24,14,15,12.10
2007,10,24,14,16,12.10
2007,10,24,14,17,12.10
2007,10,24,14,18,12.10
2007,10,24,14,19,12.10
2007,10,24,14,20,12.20
2007,10,24,14,21,12.20
2007,10,24,14,22,12.30
2007,10,24,14,23,12.30
2007,10,24,14,24,12.30
2007,10,24,14,25,12.30
2007,10,24,14,26,12.30
2007,10,24,14,27,12.30
2007,10,24,14,28,12.30
2007,10,24,14,29,12.30
2007,10,24,14,30,12.30
2007,10,24,14,31,12.20
2007,10,24,14,32,12.20
2007,10,24,14,33,12.20
2007,10,24,14,34,12.20
2007,10,24,14,35,12.20
2007,10,24,14,36,12.20
2007,10,24,14,37,12.20
2007,10,24,14,38,12.10
2007,10,24,14,39,12.10
2007,10,24,14,40,12.20
2007,10,24,14,41,12.20
2007,10,24,14,42,12.30
2007,10,24,14,43,12.30
2007,10,24,14,44,12.30
2007,10,24,14,45,12.30
2007,10,24,14,46,12.30
2007,10,24,14,47,12.30
2007,10,24,14,48,12.30
2007,10,24,14,49,12.40
2007,10,24,14,50,12.40
2007,10,24,14,51,12.30
2007,10,24,14,52,12.30
2007,10,24,14,53,12.30
2007,10,24,14,54,12.30
2007,10,24,14,55,12.30
2007,10,24,14,56,12.30
2007,10,24,14,57,12.30
2007,10,24,14,58,12.30
2007,10,24,14,59,12.30
2007,10,24,15,00,12.30
2007,10,24,15,01,12.30
2007,10,24,15,02,12.20
2007,10,24,15,03,12.20
2007,10,24,15,04,12.10
2007,10,24,15,05,12.10
2007,10,24,15,06,12.00
2007,10,24,15,07,12.00
2007,10,24,15,08,12.00
2007,10,24,15,09,12.00
2007,10,24,15,10,11.90
2007,10,24,15,11,11.90
2007,10,24,15,12,11.90
2007,10,24,15,13,12.00
2007,10,24,15,14,12.00
2007,10,24,15,15,12.00
2007,10,24,15,16,12.00
2007,10,24,15,17,12.00
2007,10,24,15,18,12.00
2007,10,24,15,19,12.00
2007,10,24,15,20,12.00
2007,10,24,15,21,11.90
2007,10,24,15,22,11.90
2007,10,24,15,23,11.90
2007,10,24,15,24,12.00
2007,10,24,15,25,12.10
2007,10,24,15,26,12.10
2007,10,24,15,27,12.10
2007,10,24,15,28,12.20
2007,10,24,15,29,12.20
2007,10,24,15,30,12.10
2007,10,24,15,31,12.10
2007,10,24,15,32,12.00
2007,10,24,15,33,12.00
2007,10,24,15,34,11.90
2007,10,24,15,35,11.80
2007,10,24,15,36,11.70
2007,10,24,15,37,11.70
2007,10,24,15,38,11.60
2007,10,24,15,39,11.60
2007,10,24,15,40,11.60
2007,10,24,15,41,11.60
2007,10,24,15,42,11.60
2007,10,24,15,43,11.60
2007,10,24,15,44,11.60
2007,10,24,15,45,11.60
2007,10,24,15,46,11.70
2007,10,24,15,47,11.70
2007,10,24,15,48,11.60
2007,10,24,15,49,11.70
2007,10,24,15,50,11.70
2007,10,24,15,51,11.70
2007,10,24,15,52,11.70
2007,10,24,15,53,11.70
2007,10,24,15,54,11.80
2007,10,24,15,55,11.80
2007,10,24,15,56,11.80
2007,10,24,15,57,11.80
2007,10,24,15,58,11.80
2007,10,24,15,59,11.80
2007,10,24,16,00,11.80
2007,10,24,16,01,11.80
2007,10,24,16,02,11.70
2007,10,24,16,03,11.70
2007,10,24,16,04,11.70
2007,10,24,16,05,11.70
2007,10,24,16,06,11.80
2007,10,24,16,07,11.80
2007,10,24,16,08,11.80
2007,10,24,16,09,11.80
2007,10,24,16,10,11.80
2007,10,24,16,11,11.80
2007,10,24,16,12,11.80
2007,10,24,16,13,11.80
2007,10,24,16,14,11.80
2007,10,24,16,15,11.80
2007,10,24,16,16,11.80
2007,10,24,16,17,11.80
2007,10,24,16,18,11.80
2007,10,24,16,19,11.80
2007,10,24,16,20,11.80
2007,10,24,16,21,11.80
2007,10,24,16,22,11.80
2007,10,24,16,23,11.80
2007,10,24,16,24,11.80
2007,10,24,16,25,11.80
2007,10,24,16,26,11.80
2007,10,24,16,27,11.80
2007,10,24,16,28,11.80
2007,10,24,16,29,11.70
2007,10,24,16,30,11.70
2007,10,24,16,31,11.70
2007,10,24,16,32,11.70
2007,10,24,16,33,11.60
2007,10,24,16,34,11.60
2007,10,24,16,35,11.60
2007,10,24,16,36,11.60
2007,10,24,16,37,11.60
2007,10,24,16,38,11.60
2007,10,24,16,39,11.60
2007,10,24,16,40,11.60
2007,10,24,16,41,11.60
2007,10,24,16,42,11.60
2007,10,24,16,43,11.60
2007,10,24,16,44,11.60
2007,10,24,16,45,11.60
2007,10,24,16,46,11.60
2007,10,24,16,47,11.60
2007,10,24,16,48,11.60
2007,10,24,16,49,11.60
2007,10,24,16,50,11.60
2007,10,24,16,51,11.60
2007,10,24,16,52,11.60
2007,10,24,16,53,11.60
2007,10,24,16,54,11.60
2007,10,24,16,55,11.60
2007,10,24,16,56,11.50
2007,10,24,16,57,11.40
2007,10,24,16,58,11.40
2007,10,24,16,59,11.40
2007,10,24,17,00,11.40
2007,10,24,17,01,11.40
2007,10,24,17,02,11.40
2007,10,24,17,03,11.40
2007,10,24,17,04,11.40
2007,10,24,17,05,11.40
2007,10,24,17,06,11.40
2007,10,24,17,07,11.40
2007,10,24,17,08,11.40
2007,10,24,17,09,11.30
2007,10,24,17,10,11.30
2007,10,24,17,11,11.30
2007,10,24,17,12,11.30
2007,10,24,17,13,11.30
2007,10,24,17,14,11.30
2007,10,24,17,15,11.30
2007,10,24,17,16,11.20
2007,10,24,17,17,11.20
2007,10,24,17,18,11.20
2007,10,24,17,19,11.20